Location: Unspecified
(0.0000°N, 0.0000°E)
Time: 20:08:58
(UTC+01:00)

DELTA 2 R/B (1) - Visible Passes

Search period start: 27 March 2015 00:00
Search period end: 06 April 2015 01:00
Orbit: 791 x 803 km, 39.6° (Epoch: 26 March)

Date Brightness Start Highest point End Pass type
(mag) Time Alt. Az. Time Alt. Az. Time Alt. Az.
27 Mar 6.1 06:16:42 10° S 06:19:44 15° SE 06:22:59 10° ESE visible
27 Mar 5.1 20:39:09 10° WNW 20:44:07 32° SW 20:47:15 19° S visible
28 Mar 6.1 05:46:30 10° S 05:49:00 13° SE 05:51:45 10° ESE visible
28 Mar 4.9 20:08:18 10° WNW 20:13:25 36° SW 20:18:30 10° SSE visible
29 Mar 6.2 06:16:28 10° SSE 06:18:15 12° SE 06:20:20 10° ESE visible
29 Mar 4.8 20:37:28 10° WNW 20:42:42 40° SW 20:47:56 10° SSE visible
30 Mar 6.2 05:47:02 10° SSE 05:47:30 10° SE 05:48:19 10° SE visible
30 Mar 3.8 07:28:42 10° SW 07:34:15 72° SE 07:39:46 10° NE visible
31 Mar 3.9 06:58:36 13° SW 07:03:34 63° SE 07:09:03 10° ENE visible
01 Apr 4.1 06:30:23 31° SSW 06:32:52 56° SE 06:38:18 10° ENE visible
02 Apr 4.2 06:02:07 49° SE 06:02:10 49° SE 06:07:32 10° ENE visible
03 Apr 5.3 05:33:47 29° E 05:33:47 29° E 05:36:44 10° ENE visible
03 Apr 4.7 07:14:37 16° W 07:17:53 27° NW 07:22:27 10° NNE visible
04 Apr 6.4 05:05:22 13° ENE 05:05:22 13° ENE 05:05:55 10° ENE visible
04 Apr 4.5 06:46:12 28° WNW 06:47:10 30° NW 06:51:56 10° NNE visible
05 Apr 4.7 06:17:40 30° NNW 06:17:40 30° NNW 06:21:25 10° NNE visible
